SBI4101 UWKD-ULLI

Flight info

Callsign SBI4101
Flight time N/A
Altitude 38000
Route APTAR L158 IRGOS T613 DOGOB M864 IBROT T784 ROKUR P164 PINOK N50 GENPA
Aircraft A310/H-SDFGHIM1RTUWXYZ/LB1

Departure

Time 2026-04-28 17:20
Airport Kazan International Airport (UWKD)

Arrival

Time N/A
Airport Pulkovo Airport (ULLI)
Time Latitude Longitude Altitude Speed Heading
2026-04-28 16:41 55.60718 49.29962 405 ft 0 kts 34°
2026-04-28 17:01 55.60711 49.29954 408 ft 3 kts 34°
2026-04-28 17:01 55.60696 49.29936 404 ft 3 kts 34°
2026-04-28 17:01 55.60680 49.29917 405 ft 3 kts 26°
2026-04-28 17:01 55.60661 49.29907 408 ft 3 kts
2026-04-28 17:02 55.60646 49.29905 407 ft 1 kts 11°
2026-04-28 17:02 55.60638 49.29901 408 ft 3 kts 26°
2026-04-28 17:02 55.60616 49.29878 408 ft 3 kts 36°
2026-04-28 17:02 55.60608 49.29867 408 ft 0 kts 36°
2026-04-28 17:03 55.60607 49.29866 408 ft 0 kts 37°
2026-04-28 17:09 55.60608 49.29867 408 ft 0 kts 37°
2026-04-28 17:09 55.60614 49.29876 409 ft 2 kts 37°
2026-04-28 17:10 55.60627 49.29886 407 ft 2 kts 18°
2026-04-28 17:10 55.60666 49.29854 406 ft 9 kts 311°
2026-04-28 17:10 55.60687 49.29804 409 ft 4 kts 306°
2026-04-28 17:10 55.60710 49.29746 409 ft 7 kts 306°
2026-04-28 17:11 55.60744 49.29660 413 ft 10 kts 303°
2026-04-28 17:11 55.60786 49.29547 407 ft 12 kts 304°
2026-04-28 17:11 55.60805 49.29426 413 ft 9 kts 238°
2026-04-28 17:11 55.60755 49.29356 410 ft 9 kts 216°
2026-04-28 17:12 55.60699 49.29287 407 ft 11 kts 214°
2026-04-28 17:12 55.60619 49.29189 407 ft 16 kts 217°
2026-04-28 17:12 55.60577 49.29020 408 ft 15 kts 272°
2026-04-28 17:12 55.60585 49.28831 406 ft 16 kts 275°
2026-04-28 17:13 55.60595 49.28639 412 ft 16 kts 281°
2026-04-28 17:13 55.60648 49.28473 408 ft 16 kts 304°
2026-04-28 17:13 55.60709 49.28314 408 ft 16 kts 304°
2026-04-28 17:13 55.60772 49.28152 411 ft 17 kts 304°
2026-04-28 17:14 55.60846 49.27960 413 ft 20 kts 304°
2026-04-28 17:14 55.60923 49.27763 408 ft 19 kts 304°
2026-04-28 17:14 55.60999 49.27565 409 ft 19 kts 305°
2026-04-28 17:14 55.61076 49.27371 412 ft 19 kts 304°
2026-04-28 17:15 55.61150 49.27174 404 ft 19 kts 304°
2026-04-28 17:15 55.61225 49.26981 407 ft 19 kts 304°
2026-04-28 17:15 55.61300 49.26791 410 ft 19 kts 304°
2026-04-28 17:15 55.61373 49.26599 410 ft 19 kts 304°
2026-04-28 17:16 55.61448 49.26408 409 ft 19 kts 305°
2026-04-28 17:16 55.61522 49.26217 407 ft 19 kts 304°
2026-04-28 17:16 55.61595 49.26029 412 ft 19 kts 304°
2026-04-28 17:16 55.61668 49.25840 406 ft 19 kts 304°
2026-04-28 17:17 55.61741 49.25650 407 ft 19 kts 304°
2026-04-28 17:17 55.61808 49.25480 412 ft 17 kts 304°
2026-04-28 17:17 55.61851 49.25322 412 ft 13 kts 263°
2026-04-28 17:17 55.61811 49.25242 412 ft 5 kts 216°
2026-04-28 17:18 55.61808 49.25238 412 ft 0 kts 216°
2026-04-28 17:18 55.61785 49.25209 411 ft 9 kts 216°
2026-04-28 17:19 55.61719 49.25132 409 ft 9 kts 205°
2026-04-28 17:19 55.61677 49.25164 406 ft 6 kts 126°
2026-04-28 17:19 55.61673 49.25174 408 ft 0 kts 126°
2026-04-28 17:19 55.61664 49.25195 408 ft 9 kts 126°
2026-04-28 17:20 55.61514 49.25584 408 ft 76 kts 124°
2026-04-28 17:20 55.61244 49.26281 408 ft 126 kts 124°
2026-04-28 17:20 55.60415 49.28405 804 ft 172 kts 125°
2026-04-28 17:20 55.59724 49.30197 1460 ft 187 kts 124°
2026-04-28 17:21 55.58962 49.32197 2222 ft 200 kts 124°
2026-04-28 17:21 55.58178 49.34270 2972 ft 209 kts 125°
2026-04-28 17:21 55.57330 49.36457 3572 ft 223 kts 125°
2026-04-28 17:22 55.55448 49.41085 4064 ft 235 kts 139°
2026-04-28 17:22 55.53971 49.42217 4623 ft 234 kts 176°
2026-04-28 17:22 55.52403 49.41840 5609 ft 232 kts 202°
2026-04-28 17:23 55.50398 49.37617 7330 ft 238 kts 261°
2026-04-28 17:23 55.50452 49.34694 8166 ft 243 kts 279°
2026-04-28 17:23 55.50777 49.31737 9031 ft 248 kts 281°
2026-04-28 17:23 55.51128 49.28748 9898 ft 251 kts 281°
2026-04-28 17:24 55.51478 49.25702 10746 ft 254 kts 281°
2026-04-28 17:24 55.51831 49.22625 11572 ft 258 kts 281°
2026-04-28 17:24 55.52188 49.19500 12385 ft 261 kts 281°
2026-04-28 17:24 55.52548 49.16352 13216 ft 263 kts 281°
2026-04-28 17:25 55.52912 49.13173 13977 ft 266 kts 281°
2026-04-28 17:25 55.53650 49.06694 15453 ft 272 kts 280°
2026-04-28 17:25 55.54009 49.03397 16161 ft 275 kts 281°
2026-04-28 17:26 55.54381 49.00054 16857 ft 279 kts 280°
2026-04-28 17:26 55.54751 48.96682 17544 ft 282 kts 281°
2026-04-28 17:26 55.55000 48.94420 17980 ft 284 kts 280°
2026-04-28 17:26 55.55504 48.89816 18851 ft 288 kts 280°
2026-04-28 17:27 55.55877 48.86371 19469 ft 291 kts 281°